Flag for Australia Weather past 2 weeks in Hobart, Tasmania, Australia

Now
52 °F

Broken clouds.


Feels Like: 47 °F
Forecast: 42 / 61 °F
Wind: 16 mph from West

Location: Hobart Airport


UV Index: 3 (Moderate)

Visibility: N/A


Pressure: 29.71 "Hg

Humidity: 50%

Dew point: 34 °F

Location of HobartLocation

Historic Weather in Hobart

°F

Hobart temperature yesterday

Maximum temperature yesterday: 63 °F (at 12:00 PM)
Minimum temperature yesterday: 45 °F (at 7:00 AM)
Average temperature yesterday: 55 °F

Past Weeks' High & Low Weather Summary

 TemperatureHumidityPressure
High72 °F (Apr 9, 2:00 PM)100% (Apr 11, 2:30 AM)30.30 "Hg (Apr 11, 2:30 AM)
Low39 °F (Apr 21, 3:00 AM)32% (Apr 22, 3:00 PM)29.47 "Hg (Apr 24, 3:30 AM)
Average56 °F67%30.02 "Hg
* Reported Apr 9 10:00 AM — Apr 24 10:00 AM, Hobart, Weather by CustomWeather, © 2014

Note: Actual official high and low records may vary slightly from our data, if they occured in-between our weather recording intervals... More about our weather records

Advertising

Historic Weather Conditions — Data for Previous 24 hours

 ConditionsComfort  
Time TempWeatherWind HumidityBarometerVisibility
10:00 AM
Apr 24
54 °FPartly sunny.20 mph51%29.65 "HgN/A
9:30 AM54 °FPassing clouds.18 mph54%29.65 "HgN/A
9:00 AM52 °FScattered clouds.10 mph62%29.62 "HgN/A
8:00 AM50 °FSprinkles. Partly sunny.8 mph71%29.62 "HgN/A
7:30 AM50 °FBroken clouds.8 mph76%29.59 "HgN/A
7:00 AM50 °FBroken clouds.9 mph76%29.53 "HgN/A
6:30 AM50 °FBroken clouds.10 mph76%29.53 "HgN/A
6:00 AM52 °FBroken clouds.16 mph67%29.56 "HgN/A
5:30 AM52 °FSprinkles. Passing clouds.16 mph72%29.56 "HgN/A
5:00 AM52 °FSprinkles. Passing clouds.12 mph82%29.53 "HgN/A
4:00 AM59 °FSprinkles. Passing clouds.12 mph51%29.47 "HgN/A
3:30 AM55 °FClear.14 mph63%29.47 "Hg10 mi
3:00 AM57 °FClear.15 mph59%29.50 "Hg10 mi
2:30 AM57 °FPassing clouds.16 mph59%29.53 "HgN/A
2:00 AM55 °FPassing clouds.16 mph63%29.56 "HgN/A
1:00 AM54 °FPassing clouds.13 mph72%29.62 "HgN/A
12:30 AM54 °FPassing clouds.14 mph72%29.62 "HgN/A
12:00 AM54 °FPassing clouds.16 mph72%29.62 "HgN/A
11:30 PM
Apr 23
54 °FPassing clouds.18 mph72%29.65 "HgN/A
11:00 PM55 °FPassing clouds.13 mph67%29.65 "HgN/A
10:30 PM52 °FPassing clouds.8 mph82%29.68 "HgN/A
10:00 PM54 °FPassing clouds.9 mph72%29.71 "HgN/A
9:30 PM54 °FClear.10 mph72%29.71 "Hg10 mi
9:00 PM52 °FClear.9 mph77%29.71 "Hg10 mi
8:30 PM55 °FClear.8 mph67%29.74 "Hg10 mi
8:00 PM54 °FClear.8 mph72%29.74 "Hg10 mi
7:30 PM55 °FClear.9 mph67%29.74 "Hg10 mi
7:00 PM57 °FClear.8 mph59%29.74 "Hg10 mi
6:30 PM57 °FClear.8 mph55%29.74 "Hg10 mi
6:00 PM57 °FClear.8 mph48%29.77 "Hg10 mi
5:30 PM57 °FPassing clouds.6 mph55%29.77 "HgN/A
5:00 PM61 °FPassing clouds.10 mph39%29.77 "HgN/A
4:30 PM63 °FPassing clouds.8 mph42%29.77 "HgN/A
4:00 PM61 °FPartly sunny.8 mph48%29.77 "HgN/A
3:30 PM63 °FPartly sunny.10 mph42%29.77 "HgN/A
3:00 PM61 °FPartly sunny.13 mph45%29.80 "HgN/A
2:30 PM63 °FPartly sunny.10 mph39%29.80 "HgN/A
2:00 PM63 °FPartly sunny.13 mph39%29.80 "HgN/A
1:30 PM63 °FPartly sunny.16 mph39%29.83 "HgN/A
1:00 PM63 °FPartly sunny.14 mph37%29.83 "HgN/A
12:30 PM63 °FPartly sunny.10 mph39%29.86 "HgN/A
12:00 PM63 °FPartly sunny.10 mph39%29.86 "HgN/A
11:30 AM61 °FPartly sunny.10 mph45%29.89 "HgN/A
11:00 AM61 °FPartly sunny.12 mph42%29.89 "HgN/A
Weather by CustomWeather, © 2014

See weather overview